This demonstration page uses our WeatherBlox Daily Observations layout. Learn more.

Left ArrowRight Arrow

Hourly Observations for April 2, 2017

Temp ( °F °C ) Dew Point ( °F °C ) Humidity (%) Winds ( mph kmh ) Pressure ( in mb ) Visibility ( mi km ) Precip ( " mm )
12:15 am 00:15 Cloudy 41 5 37 3 87 87 ESE 5 7 30.15 1021 3 5 0.00 0.00
12:35 am 00:35 Cloudy 41 5 37 3 87 87 SE 6 9 30.15 1021 3 5 0.00 0.00
12:55 am 00:55 Cloudy 41 5 37 3 87 87 SE 7 11 30.15 1021 3 5 0.00 0.00
1:15 am 01:15 Cloudy 41 5 37 3 87 87 SE 9 15 30.12 1020 3 5 0.00 0.00
1:35 am 01:35 Cloudy 41 5 37 3 87 87 SSE 10 17 30.12 1020 4 6 0.00 0.00
1:55 am 01:55 Cloudy 41 5 37 3 87 87 S 9 15 30.12 1020 4 6 0.00 0.00
2:15 am 02:15 Cloudy 41 5 37 3 87 87 S 7 11 30.12 1020 4 6 0.00 0.00
2:35 am 02:35 Cloudy 41 5 36 2 81 81 S 8 13 30.06 1018 4 6 0.00 0.00
2:55 am 02:55 Cloudy 41 5 37 3 87 87 S 13 20 30.06 1018 4 6 0.00 0.00
3:15 am 03:15 Cloudy 41 5 37 3 87 87 SSW 8 13 30.06 1018 4 6 0.00 0.00
3:35 am 03:35 Cloudy 41 5 37 3 87 87 WSW 7 11 30.06 1018 4 6 0.00 0.00
3:55 am 03:55 Cloudy 41 5 37 3 87 87 WSW 7 11 30.03 1017 5 8 0.00 0.00
4:15 am 04:15 Cloudy 41 5 37 3 87 87 WSW 7 11 30.03 1017 5 8 0.00 0.00
4:35 am 04:35 Cloudy 41 5 37 3 87 87 WSW 6 9 30.03 1017 5 8 0.00 0.00
4:55 am 04:55 Cloudy 41 5 37 3 87 87 SSW 6 9 30.03 1017 5 8 0.00 0.00
5:15 am 05:15 Cloudy 41 5 37 3 87 87 S 6 9 30.03 1017 4 6 0.00 0.00
5:35 am 05:35 Cloudy 41 5 37 3 87 87 S 7 11 30.03 1017 4 6 0.00 0.00
5:55 am 05:55 Cloudy 41 5 37 3 87 87 S 5 7 30.03 1017 5 8 0.00 0.00
6:15 am 06:15 Cloudy 41 5 37 3 87 87 Calm 30.00 1016 4 6 0.00 0.00
6:35 am 06:35 Cloudy 41 5 37 3 87 87 S 3 6 30.00 1016 4 6 0.00 0.00
6:55 am 06:55 Cloudy 41 5 37 3 87 87 Calm 30.00 1016 4 6 0.00 0.00
7:15 am 07:15 Cloudy 41 5 37 3 87 87 S 3 6 30.00 1016 3 4 0.00 0.00
7:35 am 07:35 Mostly Cloudy 39 4 36 2 87 87 S 5 7 30.03 1017 2 3 0.00 0.00
7:55 am 07:55 Sunny 37 3 34 1 87 87 S 5 7 30.03 1017 1 2 0.00 0.00
8:15 am 08:15 Sunny 37 3 36 2 93 93 S 5 7 30.03 1017 1 2 0.00 0.00
8:35 am 08:35 Sunny 41 5 37 3 87 87 S 5 7 30.00 1016 2 3 0.00 0.00
8:55 am 08:55 Sunny 43 6 39 4 87 87 S 6 9 30.00 1016 4 6 0.00 0.00
9:15 am 09:15 Sunny 45 7 39 4 81 81 S 8 13 29.97 1015 9 14 0.00 0.00
9:35 am 09:35 Sunny 45 7 39 4 81 81 SSW 9 15 29.97 1015 10 16 0.00 0.00
9:55 am 09:55 Sunny 46 8 39 4 76 76 SSW 9 15 29.94 1014 10 16 0.00 0.00
10:15 am 10:15 Mostly Sunny 48 9 39 4 71 71 S 10 17 29.94 1014 10 16 0.00 0.00
10:35 am 10:35 Partly Cloudy 48 9 39 4 71 71 S 10 17 29.94 1014 10 16 0.00 0.00
10:55 am 10:55 Mostly Cloudy 48 9 39 4 71 71 S 10 17 29.94 1014 10 16 0.00 0.00
11:15 am 11:15 Cloudy 50 10 39 4 67 67 S 14 22 29.91 1013 10 16 0.00 0.00
11:35 am 11:35 Cloudy 52 11 39 4 62 62 S 14 22 29.88 1012 10 16 0.00 0.00
11:55 am 11:55 Cloudy 50 10 39 4 67 67 S 12 19 29.91 1013 10 16 0.00 0.00
12:15 pm 12:15 Cloudy 50 10 39 4 67 67 SSW 9 15 29.91 1013 10 16 0.00 0.00
12:35 pm 12:35 Cloudy 52 11 39 4 62 62 S 13 20 29.85 1011 10 16 0.00 0.00
12:55 pm 12:55 Cloudy 52 11 39 4 62 62 SW 10 17 29.85 1011 10 16 0.00 0.00
1:15 pm 13:15 Cloudy 52 11 39 4 62 62 S 10 17 29.85 1011 10 16 0.00 0.00
1:35 pm 13:35 Cloudy 52 11 39 4 62 62 SW 5 7 29.85 1011 10 16 0.00 0.00
1:55 pm 13:55 Mostly Cloudy 54 12 43 6 67 67 SSW 10 17 29.83 1010 10 16 0.00 0.00
2:15 pm 14:15 Partly Cloudy 55 13 43 6 63 63 SSW 6 9 29.83 1010 10 16 0.00 0.00
2:35 pm 14:35 Mostly Cloudy 55 13 43 6 63 63 SW 9 15 29.83 1010 10 16 0.00 0.00
2:55 pm 14:55 Partly Cloudy 55 13 43 6 63 63 SW 8 13 29.80 1009 10 16 0.00 0.00
3:15 pm 15:15 Mostly Sunny 57 14 43 6 59 59 S 10 17 29.77 1008 10 16 0.00 0.00
3:35 pm 15:35 Partly Cloudy 57 14 43 6 59 59 SSW 10 17 29.77 1008 10 16 0.00 0.00
3:55 pm 15:55 Partly Cloudy 57 14 43 6 59 59 S 6 9 29.74 1007 10 16 0.00 0.00
4:15 pm 16:15 Partly Cloudy 57 14 43 6 59 59 S 6 9 29.74 1007 10 16 0.00 0.00
4:35 pm 16:35 Sunny 57 14 43 6 59 59 S 7 11 29.74 1007 10 16 0.00 0.00
4:55 pm 16:55 Sunny 57 14 43 6 59 59 SW 7 11 29.74 1007 10 16 0.00 0.00
5:15 pm 17:15 Sunny 57 14 43 6 59 59 S 7 11 29.74 1007 10 16 0.00 0.00
5:35 pm 17:35 Sunny 59 15 43 6 55 55 S 10 17 29.74 1007 10 16 0.00 0.00
5:55 pm 17:55 Sunny 59 15 43 6 55 55 S 8 13 29.71 1006 10 16 0.00 0.00
6:15 pm 18:15 Sunny 59 15 43 6 55 55 S 8 13 29.71 1006 10 16 0.00 0.00
6:35 pm 18:35 Sunny 59 15 43 6 55 55 S 10 17 29.71 1006 10 16 0.00 0.00
6:55 pm 18:55 Sunny 59 15 43 6 55 55 S 6 9 29.71 1006 10 16 0.00 0.00
7:15 pm 19:15 Sunny 57 14 41 5 55 55 SSE 7 11 29.71 1006 10 16 0.00 0.00
7:35 pm 19:35 Sunny 55 13 41 5 59 59 SSE 6 9 29.74 1007 10 16 0.00 0.00
7:55 pm 19:55 Sunny 55 13 43 6 63 63 SSE 3 6 29.68 1005 10 16 0.00 0.00
8:15 pm 20:15 Clear 52 11 41 5 67 67 SSE 6 9 29.71 1006 10 16 0.00 0.00
8:35 pm 20:35 Clear 52 11 41 5 67 67 SSE 7 11 29.71 1006 10 16 0.00 0.00
8:55 pm 20:55 Clear 50 10 41 5 71 71 SSE 6 9 29.74 1007 10 16 0.00 0.00
9:15 pm 21:15 Clear 48 9 39 4 71 71 SSE 7 11 29.77 1008 10 16 0.00 0.00
9:35 pm 21:35 Clear 46 8 39 4 76 76 SSE 6 9 29.77 1008 10 16 0.00 0.00
9:55 pm 21:55 Clear 48 9 43 6 82 82 S 9 15 29.77 1008 10 16 0.00 0.00
10:15 pm 22:15 Clear 46 8 41 5 82 82 S 8 13 29.77 1008 10 16 0.00 0.00
10:35 pm 22:35 Clear 46 8 41 5 82 82 S 8 13 29.77 1008 10 16 0.00 0.00
10:55 pm 22:55 Clear 46 8 41 5 82 82 S 8 13 29.77 1008 10 16 0.00 0.00
11:15 pm 23:15 Clear 45 7 41 5 87 87 SSW 7 11 29.74 1007 10 16 0.00 0.00
11:35 pm 23:35 Clear 45 7 39 4 81 81 SSW 6 9 29.74 1007 10 16 0.00 0.00
11:55 pm 23:55 Clear 45 7 39 4 81 81 SSW 5 7 29.74 1007 10 16 0.00 0.00

Powered by AerisWeather